When you browse on this site, cookies collect data to enhance your experience and personalize the content and advertising you see.
Visit our Privacy Policy to learn more. By continuing to use the site, you agree to this use of cookies and data.
  • In United Kingdom
  • List of Countries
  • For 7 days
  • Water Temperature
  • Satellite Maps
  • Weather Map
  • Weather Widgets
  • user-avatar
    Login

    Hourly Weather Baku

    Today, 20 April, Saturday

    Time Temperature Precipitation Wind Pressure Humidity
    00:00 +5°C° 0.1 mm 10 mps 764 mmHg 72%
    01:00 +5°C° 0.1 mm 10 mps 764 mmHg 73%
    02:00 +5°C° 0.1 mm 10 mps 763 mmHg 74%
    03:00 +5°C° 0 mm 10 mps 763 mmHg 75%
    04:00 +3°C° 0.6 mm 10 mps 763 mmHg 77%
    05:00 +3°C° 0.6 mm 10 mps 763 mmHg 79%
    06:00 +3°C° 0.6 mm 10 mps 763 mmHg 82%
    07:00 +3°C° 0.4 mm 10 mps 763 mmHg 81%
    08:00 +5°C° 0.4 mm 10 mps 763 mmHg 81%
    09:00 +5°C° 0.4 mm 10 mps 763 mmHg 80%
    10:00 +5°C° 0.2 mm 10 mps 763 mmHg 79%
    11:00 +6°C° 0.2 mm 10 mps 763 mmHg 77%
    12:00 +6°C° 0.2 mm 11 mps 763 mmHg 75%
    13:00 +6°C° 0 mm 10 mps 763 mmHg 73%
    14:00 +7°C° 0 mm 10 mps 763 mmHg 70%
    15:00 +7°C° 0 mm 10 mps 764 mmHg 67%
    16:00 +7°C° 0 mm 9 mps 764 mmHg 69%
    17:00 +7°C° 0 mm 9 mps 764 mmHg 70%
    18:00 +6°C° 0 mm 9 mps 764 mmHg 72%
    19:00 +6°C° 0 mm 9 mps 765 mmHg 72%
    20:00 +6°C° 0 mm 8 mps 765 mmHg 73%
    21:00 +5°C° 0 mm 8 mps 766 mmHg 74%
    22:00 +5°C° 0 mm 8 mps 766 mmHg 75%
    23:00 +5°C° 0 mm 8 mps 765 mmHg 76%

    Tomorrow, 21 April, Sunday

    Time Temperature Precipitation Wind Pressure Humidity
    00:00 +5°C° 0 mm 8 mps 765 mmHg 77%
    01:00 +5°C° 0 mm 8 mps 765 mmHg 78%
    02:00 +5°C° 0 mm 8 mps 765 mmHg 79%
    03:00 +4°C° 0 mm 8 mps 765 mmHg 79%
    04:00 +5°C° 0 mm 8 mps 765 mmHg 79%
    05:00 +5°C° 0 mm 7 mps 766 mmHg 79%
    06:00 +5°C° 0 mm 7 mps 766 mmHg 79%
    07:00 +5°C° 0 mm 7 mps 766 mmHg 75%
    08:00 +6°C° 0 mm 7 mps 766 mmHg 71%
    09:00 +8°C° 0 mm 7 mps 766 mmHg 67%
    10:00 +9°C° 0 mm 6 mps 766 mmHg 65%
    11:00 +9°C° 0 mm 6 mps 766 mmHg 62%
    12:00 +10°C° 0 mm 6 mps 766 mmHg 60%
    13:00 +10°C° 0 mm 6 mps 766 mmHg 61%
    14:00 +10°C° 0 mm 6 mps 766 mmHg 61%
    15:00 +10°C° 0 mm 5 mps 766 mmHg 62%
    16:00 +10°C° 0 mm 5 mps 766 mmHg 64%
    17:00 +9°C° 0 mm 5 mps 766 mmHg 67%
    18:00 +10°C° 0 mm 4 mps 766 mmHg 69%
    19:00 +10°C° 0 mm 4 mps 766 mmHg 71%
    20:00 +10°C° 0 mm 4 mps 766 mmHg 72%
    21:00 +9°C° 0 mm 3 mps 766 mmHg 73%
    22:00 +9°C° 0 mm 3 mps 766 mmHg 74%
    23:00 +8°C° 0 mm 4 mps 766 mmHg 75%

    Day after tomorrow, 22 April, Monday

    Time Temperature Precipitation Wind Pressure Humidity
    00:00 +8°C° 0 mm 4 mps 766 mmHg 76%
    01:00 +8°C° 0 mm 4 mps 766 mmHg 77%
    02:00 +7°C° 0 mm 4 mps 765 mmHg 77%
    03:00 +7°C° 0 mm 5 mps 765 mmHg 78%
    04:00 +7°C° 0 mm 5 mps 765 mmHg 78%
    05:00 +7°C° 0 mm 5 mps 765 mmHg 78%
    06:00 +8°C° 0 mm 5 mps 765 mmHg 78%
    07:00 +9°C° 0 mm 6 mps 765 mmHg 73%
    08:00 +9°C° 0 mm 6 mps 765 mmHg 69%
    09:00 +10°C° 0 mm 6 mps 765 mmHg 65%
    10:00 +11°C° 0 mm 6 mps 765 mmHg 63%
    11:00 +11°C° 0 mm 6 mps 765 mmHg 61%
    12:00 +11°C° 0 mm 6 mps 765 mmHg 59%
    13:00 +11°C° 0 mm 7 mps 764 mmHg 60%
    14:00 +11°C° 0 mm 7 mps 764 mmHg 61%
    15:00 +10°C° 0 mm 8 mps 764 mmHg 62%
    16:00 +10°C° 0 mm 8 mps 764 mmHg 62%
    17:00 +10°C° 0 mm 8 mps 764 mmHg 62%
    18:00 +10°C° 0 mm 8 mps 764 mmHg 62%
    19:00 +8°C° 0.2 mm 9 mps 764 mmHg 63%
    20:00 +8°C° 0.2 mm 10 mps 765 mmHg 63%
    21:00 +8°C° 0.2 mm 11 mps 765 mmHg 64%
    22:00 +8°C° 0.3 mm 11 mps 765 mmHg 63%
    23:00 +7°C° 0.3 mm 11 mps 765 mmHg 63%

    23 April, Tuesday

    Time Temperature Precipitation Wind Pressure Humidity
    00:00 +7°C° 0.3 mm 12 mps 765 mmHg 62%
    01:00 +7°C° 0.5 mm 12 mps 765 mmHg 63%
    02:00 +7°C° 0.5 mm 12 mps 765 mmHg 64%
    03:00 +7°C° 0.5 mm 12 mps 765 mmHg 65%
    04:00 +7°C° 0.3 mm 12 mps 765 mmHg 64%
    05:00 +7°C° 0.3 mm 11 mps 765 mmHg 64%
    06:00 +7°C° 0.3 mm 11 mps 766 mmHg 64%
    07:00 +7°C° 0.2 mm 12 mps 766 mmHg 62%
    08:00 +8°C° 0.2 mm 12 mps 767 mmHg 60%
    09:00 +8°C° 0.2 mm 13 mps 767 mmHg 59%
    10:00 +9°C° 0.1 mm 12 mps 767 mmHg 58%
    11:00 +9°C° 0.1 mm 11 mps 767 mmHg 58%
    12:00 +11°C° 0.1 mm 10 mps 767 mmHg 58%
    13:00 +11°C° 0 mm 10 mps 767 mmHg 58%
    14:00 +11°C° 0 mm 9 mps 768 mmHg 58%
    15:00 +11°C° 0 mm 8 mps 768 mmHg 59%
    16:00 +10°C° 0 mm 8 mps 768 mmHg 60%
    17:00 +10°C° 0 mm 7 mps 768 mmHg 62%
    18:00 +10°C° 0 mm 7 mps 768 mmHg 63%
    19:00 +9°C° 0 mm 7 mps 769 mmHg 64%
    20:00 +9°C° 0 mm 7 mps 769 mmHg 64%
    21:00 +9°C° 0 mm 8 mps 769 mmHg 65%
    22:00 +8°C° 0 mm 7 mps 769 mmHg 64%
    23:00 +8°C° 0 mm 7 mps 769 mmHg 63%

    24 April, Wednesday

    Time Temperature Precipitation Wind Pressure Humidity
    00:00 +8°C° 0 mm 7 mps 769 mmHg 62%
    01:00 +8°C° 0 mm 6 mps 769 mmHg 61%
    02:00 +8°C° 0 mm 6 mps 769 mmHg 60%
    03:00 +8°C° 0 mm 6 mps 769 mmHg 59%
    04:00 +8°C° 0 mm 5 mps 769 mmHg 57%
    05:00 +8°C° 0 mm 5 mps 770 mmHg 55%
    06:00 +8°C° 0 mm 5 mps 770 mmHg 53%
    07:00 +10°C° 0 mm 5 mps 770 mmHg 47%
    08:00 +12°C° 0 mm 4 mps 770 mmHg 41%
    09:00 +13°C° 0 mm 4 mps 771 mmHg 34%
    10:00 +13°C° 0 mm 4 mps 770 mmHg 34%
    11:00 +13°C° 0 mm 4 mps 770 mmHg 34%
    12:00 +14°C° 0 mm 4 mps 770 mmHg 34%
    13:00 +13°C° 0 mm 3 mps 770 mmHg 37%
    14:00 +14°C° 0 mm 2 mps 770 mmHg 40%
    15:00 +14°C° 0 mm 2 mps 770 mmHg 44%
    16:00 +14°C° 0 mm 1 mps 770 mmHg 44%
    17:00 +14°C° 0 mm 1 mps 770 mmHg 44%
    18:00 +14°C° 0 mm 1 mps 770 mmHg 44%
    19:00 +14°C° 0 mm 2 mps 770 mmHg 46%
    20:00 +12°C° 0 mm 3 mps 770 mmHg 49%
    21:00 +12°C° 0 mm 3 mps 771 mmHg 51%
    22:00 +12°C° 0 mm 4 mps 770 mmHg 54%
    23:00 +12°C° 0 mm 4 mps 770 mmHg 56%

    25 April, Thursday

    Time Temperature Precipitation Wind Pressure Humidity
    00:00 +10°C° 0 mm 5 mps 770 mmHg 59%
    01:00 +10°C° 0 mm 5 mps 770 mmHg 59%
    02:00 +10°C° 0 mm 5 mps 769 mmHg 60%
    03:00 +11°C° 0 mm 4 mps 769 mmHg 60%
    04:00 +11°C° 0 mm 4 mps 769 mmHg 58%
    05:00 +11°C° 0 mm 4 mps 770 mmHg 56%
    06:00 +11°C° 0 mm 4 mps 770 mmHg 54%
    07:00 +12°C° 0 mm 4 mps 770 mmHg 49%
    08:00 +13°C° 0 mm 3 mps 770 mmHg 44%
    09:00 +14°C° 0 mm 3 mps 770 mmHg 39%
    10:00 +16°C° 0 mm 3 mps 770 mmHg 40%
    11:00 +16°C° 0 mm 3 mps 770 mmHg 41%
    12:00 +16°C° 0 mm 3 mps 770 mmHg 42%
    13:00 +16°C° 0 mm 3 mps 769 mmHg 44%
    14:00 +16°C° 0 mm 3 mps 769 mmHg 47%
    15:00 +16°C° 0 mm 3 mps 769 mmHg 50%
    16:00 +14°C° 0 mm 3 mps 769 mmHg 54%
    17:00 +13°C° 0 mm 3 mps 769 mmHg 58%
    18:00 +14°C° 0 mm 2 mps 769 mmHg 62%
    19:00 +13°C° 0 mm 2 mps 770 mmHg 64%
    20:00 +13°C° 0 mm 1 mps 770 mmHg 65%
    21:00 +13°C° 0 mm 1 mps 770 mmHg 67%
    22:00 +13°C° 0 mm 1 mps 770 mmHg 67%
    23:00 +13°C° 0 mm 1 mps 770 mmHg 66%
    Show more